TimeCDT,TemperatureF,Dew PointF,Humidity,Sea Level PressureIn,VisibilityMPH,Wind Direction,Wind SpeedMPH,Gust SpeedMPH,PrecipitationIn,Events,Conditions,WindDirDegrees,DateUTC
12:14 AM,51.8,44.6,76,30.04,10.0,NNW,12.7,-,N/A,,Overcast,330,2013-06-02 05:14:00
12:34 AM,51.8,44.6,76,30.04,10.0,NNW,11.5,-,N/A,,Overcast,340,2013-06-02 05:34:00
12:53 AM,51.8,44.6,76,30.05,10.0,NNW,12.7,18.4,N/A,,Overcast,340,2013-06-02 05:53:00
1:14 AM,51.8,44.6,76,30.05,10.0,North,13.8,18.4,N/A,,Overcast,350,2013-06-02 06:14:00
1:34 AM,51.8,44.6,76,30.05,10.0,NNW,11.5,-,N/A,,Overcast,340,2013-06-02 06:34:00
1:53 AM,51.8,44.6,76,30.05,10.0,North,12.7,-,N/A,,Overcast,350,2013-06-02 06:53:00
2:14 AM,51.8,44.6,76,30.05,10.0,NNW,12.7,-,N/A,,Overcast,340,2013-06-02 07:14:00
2:34 AM,50.0,44.6,82,30.06,10.0,NNW,12.7,-,N/A,,Overcast,340,2013-06-02 07:34:00
2:53 AM,48.2,44.6,87,30.06,10.0,NNW,11.5,-,N/A,,Overcast,340,2013-06-02 07:53:00
3:14 AM,48.2,44.6,87,30.07,10.0,NNW,8.1,-,N/A,,Mostly Cloudy,340,2013-06-02 08:14:00
3:33 AM,46.4,42.8,87,30.07,10.0,NNW,8.1,-,N/A,,Scattered Clouds,330,2013-06-02 08:33:00
3:54 AM,46.4,42.8,87,30.07,10.0,NW,8.1,-,N/A,,Clear,320,2013-06-02 08:54:00
4:14 AM,44.6,42.8,93,30.07,10.0,NNW,6.9,-,N/A,,Clear,330,2013-06-02 09:14:00
4:33 AM,44.6,42.8,93,30.07,10.0,NNW,8.1,-,N/A,,Clear,330,2013-06-02 09:33:00
4:54 AM,44.6,42.8,93,30.08,10.0,NW,6.9,-,N/A,,Clear,320,2013-06-02 09:54:00
5:14 AM,44.6,42.8,93,30.08,10.0,NW,8.1,-,N/A,,Clear,320,2013-06-02 10:14:00
5:33 AM,44.6,42.8,93,30.09,10.0,NW,5.8,-,N/A,,Clear,320,2013-06-02 10:33:00
5:54 AM,44.6,41.0,87,30.10,10.0,NW,6.9,-,N/A,,Clear,310,2013-06-02 10:54:00
6:14 AM,42.8,41.0,93,30.09,10.0,NW,5.8,-,N/A,,Clear,320,2013-06-02 11:14:00
6:33 AM,42.8,41.0,93,30.10,10.0,NW,6.9,-,N/A,,Clear,310,2013-06-02 11:33:00
6:54 AM,42.8,41.0,93,30.11,10.0,NW,4.6,-,N/A,,Clear,310,2013-06-02 11:54:00
7:14 AM,46.4,42.8,87,30.11,10.0,NNW,5.8,-,N/A,,Clear,330,2013-06-02 12:14:00
7:33 AM,48.2,44.6,87,30.12,10.0,NNW,9.2,-,N/A,,Clear,330,2013-06-02 12:33:00
7:54 AM,48.2,44.6,87,30.12,10.0,North,9.2,-,N/A,,Clear,350,2013-06-02 12:54:00
8:14 AM,50.0,42.8,76,30.12,10.0,North,8.1,-,N/A,,Clear,10,2013-06-02 13:14:00
8:33 AM,51.8,44.6,76,30.12,10.0,North,8.1,-,N/A,,Clear,360,2013-06-02 13:33:00
8:54 AM,53.6,44.6,72,30.13,10.0,North,8.1,-,N/A,,Clear,350,2013-06-02 13:54:00
9:13 AM,53.6,42.8,67,30.12,10.0,NNE,5.8,-,N/A,,Clear,20,2013-06-02 14:13:00
9:34 AM,53.6,39.2,58,30.12,10.0,NNW,6.9,-,N/A,,Clear,340,2013-06-02 14:34:00
9:54 AM,55.4,41.0,58,30.12,10.0,North,4.6,-,N/A,,Clear,350,2013-06-02 14:54:00
10:13 AM,55.4,39.2,54,30.12,10.0,NE,4.6,-,N/A,,Scattered Clouds,50,2013-06-02 15:13:00
10:34 AM,55.4,37.4,51,30.12,10.0,NNE,4.6,-,N/A,,Clear,30,2013-06-02 15:34:00
10:54 AM,55.4,39.2,54,30.12,10.0,Calm,Calm,-,N/A,,Clear,0,2013-06-02 15:54:00
11:13 AM,57.2,39.2,51,30.12,10.0,Calm,Calm,-,N/A,,Clear,0,2013-06-02 16:13:00
11:34 AM,57.2,39.2,51,30.11,10.0,WNW,5.8,-,N/A,,Scattered Clouds,300,2013-06-02 16:34:00
11:54 AM,59.0,41.0,51,30.11,10.0,NNW,8.1,-,N/A,,Scattered Clouds,340,2013-06-02 16:54:00
12:13 PM,59.0,39.2,48,30.10,10.0,ENE,8.1,-,N/A,,Scattered Clouds,60,2013-06-02 17:13:00
12:34 PM,59.0,39.2,48,30.09,10.0,NNE,8.1,-,N/A,,Clear,30,2013-06-02 17:34:00
12:54 PM,60.8,37.4,42,30.09,10.0,Calm,Calm,-,N/A,,Clear,0,2013-06-02 17:54:00
1:13 PM,60.8,37.4,42,30.09,10.0,Calm,Calm,-,N/A,,Clear,0,2013-06-02 18:13:00
1:34 PM,60.8,37.4,42,30.09,10.0,WNW,9.2,-,N/A,,Clear,290,2013-06-02 18:34:00
1:54 PM,62.6,39.2,42,30.09,10.0,NNW,3.5,-,N/A,,Clear,340,2013-06-02 18:54:00
2:13 PM,62.6,37.4,39,30.08,10.0,Calm,Calm,-,N/A,,Clear,0,2013-06-02 19:13:00
2:34 PM,62.6,37.4,39,30.08,10.0,NW,6.9,-,N/A,,Clear,320,2013-06-02 19:34:00
2:53 PM,62.6,37.4,39,30.08,10.0,Calm,Calm,-,N/A,,Clear,0,2013-06-02 19:53:00
3:13 PM,62.6,37.4,39,30.07,10.0,WNW,6.9,-,N/A,,Clear,300,2013-06-02 20:13:00
3:34 PM,62.6,37.4,39,30.06,10.0,Calm,Calm,-,N/A,,Clear,0,2013-06-02 20:34:00
3:54 PM,62.6,37.4,39,30.06,10.0,NW,4.6,-,N/A,,Clear,320,2013-06-02 20:54:00
4:13 PM,62.6,35.6,37,30.05,10.0,NNW,6.9,-,N/A,,Clear,330,2013-06-02 21:13:00
4:34 PM,64.4,39.2,40,30.04,10.0,ENE,3.5,-,N/A,,Clear,60,2013-06-02 21:34:00
4:53 PM,64.4,39.2,40,30.03,10.0,NNW,8.1,-,N/A,,Clear,340,2013-06-02 21:53:00
5:13 PM,64.4,37.4,37,30.03,10.0,Calm,Calm,-,N/A,,Clear,0,2013-06-02 22:13:00
5:34 PM,64.4,39.2,40,30.02,10.0,SW,3.5,-,N/A,,Clear,230,2013-06-02 22:34:00
5:53 PM,64.4,37.4,37,30.02,10.0,NE,3.5,-,N/A,,Clear,40,2013-06-02 22:53:00
6:14 PM,64.4,37.4,37,30.02,7.0,NW,5.8,-,N/A,,Clear,320,2013-06-02 23:14:00
6:34 PM,64.4,35.6,34,30.02,10.0,Calm,Calm,-,N/A,,Clear,0,2013-06-02 23:34:00
6:53 PM,64.4,37.4,37,30.02,10.0,Calm,Calm,-,N/A,,Clear,0,2013-06-02 23:53:00
7:14 PM,64.4,37.4,37,30.01,10.0,Calm,Calm,-,N/A,,Clear,0,2013-06-03 00:14:00
7:34 PM,62.6,39.2,42,30.01,10.0,North,4.6,-,N/A,,Clear,10,2013-06-03 00:34:00
7:53 PM,62.6,41.0,45,30.02,10.0,Calm,Calm,-,N/A,,Clear,0,2013-06-03 00:53:00
8:14 PM,60.8,39.2,45,30.02,10.0,North,5.8,-,N/A,,Clear,10,2013-06-03 01:14:00
8:34 PM,57.2,39.2,51,30.02,10.0,NNE,8.1,-,N/A,,Clear,20,2013-06-03 01:34:00
8:53 PM,57.2,39.2,51,30.01,10.0,NNE,5.8,-,N/A,,Clear,30,2013-06-03 01:53:00
9:14 PM,57.2,37.4,48,30.02,10.0,NE,4.6,-,N/A,,Clear,50,2013-06-03 02:14:00
9:34 PM,55.4,39.2,54,30.02,10.0,NE,5.8,-,N/A,,Clear,40,2013-06-03 02:34:00
9:53 PM,51.8,39.2,62,30.03,10.0,NNE,5.8,-,N/A,,Clear,30,2013-06-03 02:53:00
10:14 PM,53.6,39.2,58,30.03,10.0,NE,4.6,-,N/A,,Clear,40,2013-06-03 03:14:00
10:33 PM,51.8,39.2,62,30.03,10.0,NNE,4.6,-,N/A,,Clear,30,2013-06-03 03:33:00
10:54 PM,51.8,39.2,62,30.03,10.0,NE,4.6,-,N/A,,Clear,40,2013-06-03 03:54:00
11:13 PM,51.8,39.2,62,30.03,10.0,NE,4.6,-,N/A,,Clear,40,2013-06-03 04:13:00
11:34 PM,48.2,39.2,71,30.03,10.0,NE,5.8,-,N/A,,Clear,40,2013-06-03 04:34:00
11:54 PM,51.8,37.4,58,30.04,10.0,NE,3.5,-,N/A,,Clear,50,2013-06-03 04:54:00